User: anonymous   Login
Location: Unspecified
(0.0000°N, 0.0000°E)
Time: 23:19:47
(UTC+00:00)
Language:

OPTUS 1C - Orbit

View from above orbital plane
View from above orbital plane
View from above satellite
View from above satellite

Ground track
Ground track

The orbit data is extracted from the following two-line orbital elements,

1 27831U 03028B   18056.51160429 -.00000166  00000-0  00000+0 0  9995
2 27831   0.0340 158.4771 0002694 167.7738 169.2302  1.00271040 53908
Epoch (UTC): 25 February 2018 12:16:42
Eccentricity: 0.0002694
inclination: 0.0340°
perigee height: 35775 km
apogee height: 35798 km
right ascension of ascending node: 158.4771°
argument of perigee: 167.7738°
revolutions per day: 1.00271040
mean anomaly at epoch: 169.2302°
orbit number at epoch: 5390

The dashed part of the orbit path shows where the satellite is in the earth's shadow,  

DLR